User: anonymous   Login
Location: Newark
(22.8000°N, 86.1800°E)
Time: 08:26:25
(UTC+00:00)
Language:

XW-2C - Orbit

View from above orbital plane
View from above orbital plane
View from above satellite
View from above satellite

Ground track
Ground track

The orbit data is extracted from the following two-line orbital elements,

1 40906U 15049H   20157.82592003  .00000448  00000-0  26671-4 0  9994
2 40906  97.4758 159.3470 0016245  57.6193  19.9482 15.16065286260493
Epoch (UTC): 05 June 2020 19:49:19
Eccentricity: 0.0016245
inclination: 97.4758°
perigee height: 506 km
apogee height: 529 km
right ascension of ascending node: 159.3470°
argument of perigee: 57.6193°
revolutions per day: 15.16065286
mean anomaly at epoch: 19.9482°
orbit number at epoch: 26049

The dashed part of the orbit path shows where the satellite is in the earth's shadow,  

DLR